Glidden, IA

9:44 AM CST on February 24, 2017 (GMT -0600)
Neu

Weather History for KCIN - March, 2014

Change the Weather History Date:

Friday, March 14, 2014

  Actual Average Record
Temperature  
Mean Temperature 40 °F -  
Max Temperature 51 °F 45 °F 78 °F (2012)
Min Temperature 30 °F 24 °F -15 °F (1975)
Degree Days  
Heating Degree Days 24    
Moisture  
Dew Point 29 °F    
Average Humidity 57    
Maximum Humidity 87    
Minimum Humidity 40    
Precipitation  
Precipitation 0.00 in - - ()
Sea Level Pressure  
Sea Level Pressure 29.80 in    
Wind  
Wind Speed 16 mph (WNW)    
Max Wind Speed 26 mph    
Max Gust Speed 37 mph    
Visibility 10 miles    
Events      
Averages and records for this station are not official NWS values.
T = Trace of Precipitation, MM = Missing Value Source: NWS Daily Summary

Daily Weather History Graph

Daily Weather History Graph

Search for Another Location

Airport or City:

Trip Planner

Search our weather history database for the weather conditions in past years. The results will help you decide how hot, cold, wet, or windy it might be!

Date:

Astronomy

Mar. 14, 2014 Rise Set
Actual Time 7:32 AM CDT 7:24 PM CDT
Civil Twilight 7:04 AM CDT 7:52 PM CDT
Nautical Twilight 6:32 AM CDT 8:24 PM CDT
Astronomical Twilight 5:59 AM CDT 8:57 PM CDT
Moon 5:46 PM CDT (3/14) 6:14 AM CDT (3/14)
Length of Visible Light 12h 47m
Length of Day
11h 51m
Waxing Gibbous, 96% of the Moon is Illuminated
Mar 14
Waxing Gibbous
Mar 16
Full
Mar 23
Last Quarter
Mar 30
New
Apr 7
First Quarter

Hourly Weather History & Observations

Time (CDT) Temp. Windchill Dew Point Humidity Pressure Visibility Wind Dir Wind Speed Gust Speed Precip Events Conditions
12:15 AM 44.6 °F 36.9 °F - N/A% 29.61 in 10.0 mi SSW 18.4 mph - N/A   Clear
12:35 AM 44.6 °F 37.2 °F - N/A% 29.61 in 10.0 mi SW 17.3 mph 24.2 mph N/A   Clear
12:55 AM 44.6 °F 36.6 °F - N/A% 29.60 in 10.0 mi SW 19.6 mph - N/A   Clear
1:15 AM 44.6 °F 36.6 °F - N/A% 29.60 in 10.0 mi SW 19.6 mph - N/A   Clear
1:35 AM 44.6 °F 36.6 °F - N/A% 29.60 in 10.0 mi SSW 19.6 mph - N/A   Clear
1:55 AM 44.6 °F 36.6 °F - N/A% 29.60 in 10.0 mi SW 19.6 mph - N/A   Clear
2:15 AM 42.8 °F 34.8 °F - N/A% 29.63 in 10.0 mi West 17.3 mph - N/A   Clear
2:35 AM 42.8 °F 35.8 °F - N/A% 29.62 in 10.0 mi WSW 13.8 mph - N/A   Clear
2:55 AM 41.0 °F 33.5 °F - N/A% 29.61 in 10.0 mi SW 13.8 mph - N/A   Partly Cloudy
3:15 AM 41.0 °F 33.1 °F - N/A% 29.62 in 10.0 mi WSW 15.0 mph - N/A   Partly Cloudy
3:35 AM 42.8 °F 35.4 °F - N/A% 29.62 in 10.0 mi WSW 15.0 mph - N/A   Partly Cloudy
3:55 AM 42.8 °F 36.6 °F - N/A% 29.63 in 10.0 mi West 11.5 mph 19.6 mph N/A   Partly Cloudy
4:15 AM 41.0 °F 33.1 °F - N/A% 29.63 in 10.0 mi West 15.0 mph - N/A   Clear
4:35 AM 39.2 °F 31.6 °F - N/A% 29.63 in 10.0 mi West 12.7 mph - N/A   Clear
4:55 AM 37.4 °F 30.8 °F - N/A% 29.64 in 10.0 mi WNW 9.2 mph - N/A   Partly Cloudy
5:15 AM 39.2 °F 31.6 °F - N/A% 29.65 in 10.0 mi WNW 12.7 mph - N/A   Mostly Cloudy
5:35 AM 39.2 °F 32.5 °F - N/A% 29.67 in 10.0 mi WNW 10.4 mph - N/A   Scattered Clouds
5:55 AM 41.0 °F 32.2 °F - N/A% 29.68 in 10.0 mi NW 18.4 mph - N/A   Mostly Cloudy
6:10 AM 41.0 °F 31.4 °F - N/A% 29.69 in 10.0 mi NW 21.9 mph - N/A   Overcast
6:35 AM 39.2 °F 29.8 °F - N/A% 29.71 in 10.0 mi NW 18.4 mph - N/A   Mostly Cloudy
6:55 AM 39.2 °F 30.8 °F - N/A% 29.72 in 10.0 mi NW 15.0 mph - N/A   Scattered Clouds
7:15 AM 39.2 °F 30.2 °F - N/A% 29.73 in 10.0 mi NW 17.3 mph - N/A   Partly Cloudy
7:35 AM 37.4 °F 27.8 °F - N/A% 29.74 in 10.0 mi NW 17.3 mph - N/A   Clear
7:55 AM 37.4 °F 28.2 °F - N/A% 29.75 in 10.0 mi NW 16.1 mph - N/A   Clear
8:15 AM 39.2 °F 30.8 °F - N/A% 29.75 in 10.0 mi NW 15.0 mph 20.7 mph N/A   Clear
8:35 AM 39.2 °F 29.8 °F - N/A% 29.76 in 10.0 mi NW 18.4 mph - N/A   Clear
8:55 AM 41.0 °F 32.5 °F - N/A% 29.77 in 10.0 mi WNW 17.3 mph - N/A   Clear
9:15 AM 41.0 °F 31.9 °F - N/A% 29.78 in 10.0 mi NW 19.6 mph - N/A   Clear
9:35 AM 42.8 °F 34.3 °F - N/A% 29.79 in 10.0 mi NW 19.6 mph 25.3 mph N/A   Clear
9:55 AM 42.8 °F 33.8 °F - N/A% 29.80 in 10.0 mi WNW 21.9 mph 27.6 mph N/A   Clear
10:15 AM 44.6 °F 36.1 °F - N/A% 29.81 in 10.0 mi WNW 21.9 mph 29.9 mph N/A   Clear
10:35 AM 44.6 °F 35.9 °F - N/A% 29.82 in 10.0 mi WNW 23.0 mph 32.2 mph N/A   Clear
10:55 AM 44.6 °F 35.7 °F 32.0 °F 61% 29.82 in 10.0 mi NW 24.2 mph 34.5 mph N/A   Clear
11:15 AM 46.4 °F 37.9 °F 32.0 °F 57% 29.82 in 10.0 mi WNW 25.3 mph 34.5 mph N/A   Clear
11:35 AM 46.4 °F 38.1 °F 32.0 °F 57% 29.82 in 10.0 mi WNW 24.2 mph 31.1 mph N/A   Clear
11:55 AM 46.4 °F 37.9 °F 32.0 °F 57% 29.83 in 10.0 mi WNW 25.3 mph - N/A   Clear
12:15 PM 48.2 °F - 32.0 °F 54% 29.83 in 10.0 mi WNW 25.3 mph 34.5 mph N/A   Clear
12:35 PM 48.2 °F - 32.0 °F 54% 29.84 in 10.0 mi WNW 26.5 mph 35.7 mph N/A   Clear
12:55 PM 48.2 °F - 32.0 °F 54% 29.84 in 10.0 mi NW 23.0 mph 36.8 mph N/A   Partly Cloudy
1:15 PM 48.2 °F - 32.0 °F 54% 29.85 in 10.0 mi NW 26.5 mph 36.8 mph N/A   Scattered Clouds
1:35 PM 50.0 °F - 32.0 °F 50% 29.86 in 10.0 mi NW 23.0 mph 35.7 mph N/A   Scattered Clouds
1:55 PM 50.0 °F - 32.0 °F 50% 29.86 in 10.0 mi NW 21.9 mph 32.2 mph N/A   Partly Cloudy
2:15 PM 50.0 °F - 32.0 °F 50% 29.86 in 10.0 mi WNW 24.2 mph 29.9 mph N/A   Partly Cloudy
2:35 PM 50.0 °F - 32.0 °F 50% 29.85 in 10.0 mi WNW 23.0 mph 29.9 mph N/A   Partly Cloudy
2:55 PM 50.0 °F - 32.0 °F 50% 29.85 in 10.0 mi WNW 21.9 mph 29.9 mph N/A   Partly Cloudy
3:15 PM 50.0 °F - 32.0 °F 50% 29.86 in 10.0 mi NW 20.7 mph - N/A   Scattered Clouds
3:35 PM 51.8 °F - 32.0 °F 47% 29.86 in 10.0 mi WNW 20.7 mph - N/A   Scattered Clouds
3:55 PM 51.8 °F - 32.0 °F 47% 29.86 in 10.0 mi NW 21.9 mph - N/A   Scattered Clouds
4:15 PM 50.0 °F - 30.2 °F 47% 29.86 in 10.0 mi WNW 19.6 mph 25.3 mph N/A   Partly Cloudy
4:35 PM 50.0 °F - 28.4 °F 43% 29.86 in 10.0 mi NW 17.3 mph 29.9 mph N/A   Mostly Cloudy
4:55 PM 51.8 °F - 28.4 °F 41% 29.86 in 10.0 mi NW 19.6 mph 27.6 mph N/A   Partly Cloudy
5:15 PM 51.8 °F - 28.4 °F 41% 29.87 in 10.0 mi NW 17.3 mph 26.5 mph N/A   Clear
5:35 PM 51.8 °F - 28.4 °F 41% 29.87 in 10.0 mi NW 19.6 mph 28.8 mph N/A   Clear
5:55 PM 50.0 °F - 26.6 °F 40% 29.88 in 10.0 mi WNW 18.4 mph - N/A   Clear
6:15 PM 50.0 °F - 26.6 °F 40% 29.88 in 10.0 mi NW 13.8 mph 20.7 mph N/A   Clear
6:35 PM 50.0 °F - 26.6 °F 40% 29.89 in 10.0 mi NW 11.5 mph - N/A   Clear
6:55 PM 48.2 °F - 26.6 °F 43% 29.90 in 10.0 mi NW 9.2 mph - N/A   Clear
7:15 PM 46.4 °F 42.9 °F 28.4 °F 50% 29.91 in 10.0 mi NW 6.9 mph - N/A   Clear
7:35 PM 42.8 °F 38.6 °F 28.4 °F 57% 29.91 in 10.0 mi NW 6.9 mph - N/A   Clear
7:55 PM 41.0 °F 38.0 °F 28.4 °F 61% 29.92 in 10.0 mi WNW 4.6 mph - N/A   Clear
8:15 PM 41.0 °F 38.0 °F 26.6 °F 57% 29.92 in 10.0 mi West 4.6 mph - N/A   Clear
8:35 PM 37.4 °F 33.8 °F 26.6 °F 65% 29.93 in 10.0 mi WNW 4.6 mph - N/A   Clear
8:55 PM 35.6 °F 31.7 °F 26.6 °F 70% 29.93 in 10.0 mi WNW 4.6 mph - N/A   Clear
9:15 PM 35.6 °F - 26.6 °F 70% 29.94 in 10.0 mi Calm Calm - N/A   Clear
9:35 PM 35.6 °F - 26.6 °F 70% 29.94 in 10.0 mi Calm Calm - N/A   Clear
9:55 PM 33.8 °F 28.6 °F 26.6 °F 75% 29.94 in 10.0 mi North 5.8 mph - N/A   Clear
10:15 PM 33.8 °F - 28.4 °F 81% 29.95 in 10.0 mi Calm Calm - N/A   Clear
10:35 PM 33.8 °F - 28.4 °F 81% 29.95 in 10.0 mi Calm Calm - N/A   Clear
10:55 PM 33.8 °F - 28.4 °F 81% 29.96 in 10.0 mi Calm Calm - N/A   Clear
11:15 PM 32.0 °F - 28.4 °F 87% 29.96 in 10.0 mi Calm Calm - N/A   Clear
11:35 PM 30.2 °F 26.7 °F 26.6 °F 86% 29.96 in 10.0 mi South 3.5 mph - N/A   Clear
11:55 PM 32.0 °F - 28.4 °F 87% 29.96 in 10.0 mi Calm Calm - N/A   Clear